SCP
0 0 0 0 0 0 0 0 -0 0 0 0 0 0 0 0 0 0 0 0 -0 0 -0 -0 -0 -0 0 0 0 0 0 0 0 -0 -0 -0 -0 -0 -0 0 0 0 0 0 0 0 0 0 0
0 0 0 0 0 0 0 -0 0 0 0 0 0 0 0 0 0 0 0 0 -0 0 0 0 -0 -0 0 0 0 0 0 0 0 -0 -0 -0 -0 -0 -0 0 0 0 0 0 0 0 0 0 0
0 0 0 0 0 0 0 0 0 0 0 0 0 0 0 0 0 0 0 0 -0 0 0 0 -0 -0 0 -0 -0 -0 0 0 0 0 -0 -0 -0 -0 -0 0 0 0 0 0 0 0 0 0 0
0 0 0 0 0 0 0 0 0 0 0 0 0 0 0 0 0 0 0 0 0 0 0 0 0 -0 -0 -0 -0 -0 -0 0 0 -0 -0 -0 -0 -0 -0 -0 0 0 0 0 0 0 0 0 0
0 0 0 0 0 0 0 0 0 0 0 0 0 0 0 0 0 0 0 0 0 0 0 0 0 0 0 0 -0 -0 -0 -0 -0 -0 0 -0 -0 -0 0 0 0 0 0 0 0 0 0 0 0
0 0 0 0 0 0 0 0 0 0 0 0 0 0 0 0 0 -0 0 0 0 0 0 1 0 0 0 0 0 -0 -0 -0 -0 -0 0 0 0 0 0 0 0 0 0 0 0 0 0 0 0
0 0 0 0 0 0 0 0 0 0 0 0 0 0 0 0 0 0 -0 0 0 0 1 1 0 0 0 0 0 0 0 -0 -0 -0 0 0 0 0 0 0 0 0 0 0 0 0 0 0 0
0 0 0 0 0 0 0 0 0 0 0 0 0 0 0 0 0 0 -0 0 0 0 1 1 0 0 0 0 0 0 0 0 0 0 0 0 0 0 0 0 0 0 0 0 0 0 0 0 0
0 0 0 0 0 0 0 0 0 0 0 0 0 0 0 0 0 0 -0 -0 0 0 2 0 0 0 0 0 0 0 0 0 0 0 0 0 -0 0 0 0 0 0 0 0 0 0 0 0 0
0 0 0 0 0 0 0 0 0 0 0 0 0 0 0 0 0 0 0 0 0 0 0 0 0 0 0 0 0 0 0 0 0 0 0 0 0 0 0 0 0 0 0 0 0 0 0 0 0
0 0 0 0 0 0 0 0 0 0 0 0 0 0 0 0 0 0 0 -0 0 0 0 1 0 1 0 0 1 0 0 0 0 0 0 0 0 0 0 0 0 0 0 0 0 0 0 0 0
0 0 0 0 0 0 0 0 0 0 0 0 0 0 0 0 0 0 0 0 0 0 1 1 1 1 1 1 1 0 0 0 0 0 0 1 0 0 0 0 0 0 0 0 0 0 0 0 0
0 0 0 0 0 0 0 0 0 0 0 0 0 0 0 0 0 0 0 0 0 0 0 1 2 5 4 7 7 1 0 0 0 0 1 1 1 0 1 0 1 1 0 0 0 0 0 0 0
0 0 0 0 0 0 0 0 0 0 0 0 0 0 0 0 0 0 0 0 0 0 0 0 2 3 2 4 8 8 6 2 1 1 1 1 1 2 1 1 1 0 0 0 0 0 0 0 1
0 0 0 0 0 0 0 0 0 0 0 0 0 0 0 0 0 0 0 0 0 0 0 0 0 2 3 4 4 6 8 2 4 2 3 1 2 1 2 2 1 0 0 0 0 1 1 1 1
0 0 0 0 0 0 0 0 0 0 0 0 0 0 0 0 0 0 0 0 0 0 0 0 0 1 1 1 3 3 3 4 2 2 2 3 2 2 2 2 1 0 0 0 0 0 0 1 0
0 0 0 0 0 0 0 0 0 0 0 0 0 0 0 0 0 0 0 0 0 0 0 0 0 0 0 1 0 2 2 3 2 2 1 1 3 3 3 1 1 1 0 0 1 1 1 1 1
0 -0 0 -0 -0 0 0 0 0 0 0 0 0 0 0 0 0 0 0 0 0 0 0 0 0 0 0 0 2 1 1 1 1 2 1 1 1 3 2 1 1 1 1 1 1 1 1 1 2
0 0 0 0 0 0 0 0 0 0 0 0 0 0 0 0 0 0 0 0 0 0 0 0 0 0 1 0 0 1 1 -1 -0 1 -0 1 1 2 2 2 1 1 1 1 1 1 1 1 2
0 0 0 0 0 0 0 0 0 0 0 0 0 0 0 0 0 0 0 0 0 0 0 0 0 0 0 1 0 0 0 0 -0 0 2 1 1 2 2 1 2 1 1 2 1 1 1 0 2
0 0 0 0 0 0 0 0 0 0 0 0 0 0 0 0 0 0 0 0 0 0 0 0 0 0 0 0 0 1 0 0 0 0 0 -1 -0 1 2 2 2 2 1 1 1 2 2 1 2
0 0 0 0 0 0 0 0 0 0 0 0 0 0 0 0 0 0 0 0 0 0 0 0 0 0 0 0 0 1 1 0 0 0 0 2 4 2 3 1 2 2 3 1 1 1 2 1 2
0 0 0 0 0 0 0 0 0 0 0 0 0 0 0 0 0 0 0 0 0 0 0 0 0 0 0 0 0 0 0 0 0 0 0 0 1 7 6 4 3 2 2 2 1 2 3 3 2
0 0 0 0 0 0 0 0 0 0 0 0 0 0 0 0 0 0 0 0 0 0 0 0 0 0 0 0 0 0 0 0 0 0 0 0 0 0 9 7 2 2 3 2 3 1 1 5 4
0 0 0 0 0 0 0 0 0 -0 0 0 0 0 0 0 0 0 0 0 0 0 0 0 0 0 0 0 0 0 0 0 0 0 0 0 0 0 0 5 4 4 4 4 4 1 2 5 6
0 0 0 0 0 0 0 0 0 0 0 0 0 0 0 0 0 0 0 0 0 0 0 0 0 0 0 0 0 0 0 0 0 0 0 0 0 0 1 3 8 6 5 4 4 3 4 7 4
-0 0 0 0 0 0 0 0 0 0 0 0 0 0 0 0 0 0 0 0 0 0 0 0 0 0 0 0 0 0 0 0 0 0 0 0 0 0 0 0 1 5 5 5 6 5 5 7 6
0 0 0 0 0 0 0 0 0 0 0 0 0 0 0 0 0 0 0 0 0 0 0 0 0 0 0 0 0 0 0 0 0 0 0 0 0 0 1 0 0 1 4 5 5 5 4 6 6
0 0 0 0 0 0 0 0 0 0 0 0 0 0 0 0 0 0 0 0 0 0 0 0 0 0 0 0 0 0 0 0 0 0 0 0 0 0 0 1 1 1 1 3 5 4 3 3 5
0 0 0 0 0 0 0 -0 0 0 0 0 0 0 0 0 0 0 0 0 0 0 0 0 0 0 0 0 0 0 0 0 0 0 0 0 0 0 0 0 0 1 0 3 3 3 3 2 4
Wind_Speed_500mb
17 20 17 17 12 14 27 36 44 13 20 13 25 23 17 45 31 11 26 16 27 42 54 55 58 62 61 57 52 49 43 38 33 29 28 26 24 23 21 19 18 18 17 16 14 14 14 14 14
16 14 15 17 14 23 24 36 42 7 25 28 20 17 20 11 32 39 29 19 22 39 55 59 60 63 61 58 53 48 43 37 32 29 27 25 22 20 17 16 14 14 13 12 11 11 10 9 10
16 14 19 10 20 28 32 19 24 8 22 10 6 8 20 18 32 12 25 12 22 28 55 61 62 64 62 59 54 49 43 37 32 29 27 24 21 18 15 12 11 10 8 8 7 6 6 6 7
11 20 19 19 33 41 48 27 15 14 6 10 10 7 9 22 19 19 17 5 26 23 55 64 65 65 63 59 57 51 44 38 33 30 27 24 20 17 12 10 7 6 4 4 3 2 1 2 3
21 19 21 28 33 36 45 51 18 11 16 3 12 21 16 17 22 25 14 12 27 33 49 65 68 66 62 59 56 52 47 40 35 31 28 24 20 16 12 9 5 3 2 3 3 4 3 4 6
32 33 24 28 32 37 25 57 39 15 20 21 3 18 9 26 29 27 19 10 31 43 41 64 69 68 61 56 53 50 46 42 37 34 30 26 21 18 15 11 7 6 5 8 9 11 11 11 12
28 24 34 38 38 26 29 43 30 46 43 25 40 5 24 34 29 25 21 4 30 44 43 53 69 69 64 58 53 49 46 42 38 35 32 29 24 20 17 14 12 10 10 12 13 14 16 18 19
39 23 41 39 34 44 30 33 25 46 42 50 27 7 20 33 32 27 15 6 31 44 44 45 66 70 67 61 57 51 47 43 40 37 35 31 27 24 21 18 15 14 14 16 16 17 19 23 26
49 27 29 42 45 36 44 23 41 19 39 48 38 28 25 18 31 31 17 7 27 44 45 40 61 70 68 63 60 55 48 44 42 40 38 33 30 26 25 21 20 19 19 21 20 22 23 26 30
40 33 48 41 37 39 52 47 54 27 33 43 62 39 20 26 28 35 33 12 14 41 43 33 40 57 62 52 60 57 52 49 46 43 40 37 33 29 25 22 24 23 25 25 23 27 27 30 32
52 43 45 52 59 65 51 55 21 26 33 51 55 52 21 6 25 37 37 17 9 12 38 39 33 43 46 37 44 49 54 52 49 46 44 39 37 31 22 24 27 22 25 29 27 28 27 24 26
48 60 61 58 61 66 48 63 25 33 34 42 23 42 12 3 12 26 41 21 12 16 27 32 35 41 35 36 42 35 46 52 53 52 48 44 40 35 27 24 27 24 20 15 20 18 19 21 22
46 49 56 61 63 61 63 59 30 49 47 37 42 42 34 19 12 20 27 16 14 11 5 21 32 38 39 54 40 37 28 35 40 44 45 48 45 36 36 35 30 33 31 24 22 17 20 28 27
49 50 54 54 57 53 53 58 47 60 54 32 28 36 48 40 35 14 24 10 16 20 14 18 12 30 46 58 49 44 38 34 33 34 40 39 40 42 35 42 41 37 38 31 26 29 26 32 33
44 46 37 46 41 45 63 44 52 61 42 41 51 50 53 55 54 44 27 16 22 22 15 21 33 27 40 44 67 47 52 47 38 41 40 45 44 37 43 47 40 36 39 39 37 38 39 44 37
27 34 38 42 40 49 51 46 49 62 55 51 55 48 54 62 45 68 56 36 33 25 25 19 29 27 29 25 37 71 58 59 52 46 52 48 52 50 47 50 51 44 43 39 41 37 36 39 31
30 32 40 45 46 40 45 54 45 62 58 57 58 63 38 44 40 37 47 35 30 40 24 24 23 34 20 15 31 32 38 53 58 59 50 49 56 56 53 53 59 54 46 46 49 37 32 29 30
32 41 41 44 40 44 52 53 46 45 50 57 65 43 37 34 45 42 47 42 33 34 34 26 18 17 39 42 42 21 14 24 46 41 43 46 53 57 52 52 57 53 56 53 55 41 34 31 25
40 42 45 39 36 31 25 29 31 36 58 51 35 25 27 37 44 44 40 39 34 36 32 30 32 22 22 27 36 53 27 28 33 35 34 38 54 52 48 56 58 59 58 59 52 43 38 28 25
27 34 39 37 44 35 31 29 31 39 46 49 45 42 43 42 41 32 26 32 30 29 35 35 30 48 29 30 23 30 64 61 56 38 50 42 50 45 56 49 60 54 61 66 53 52 48 38 30
33 36 38 43 39 37 33 38 37 41 51 58 50 55 53 60 56 50 39 29 16 27 32 29 30 33 31 31 24 21 26 57 96 78 66 47 52 51 59 67 63 57 55 70 61 68 63 42 38
38 33 36 31 33 27 31 31 39 41 49 52 59 49 45 50 56 65 49 34 26 20 19 27 36 32 23 25 23 27 34 40 43 54 55 55 61 70 73 65 72 56 65 77 73 78 76 57 53
34 31 34 31 33 27 39 28 35 39 39 32 27 40 39 45 50 54 34 24 22 19 18 18 26 23 27 32 37 34 40 32 41 46 49 49 50 52 51 53 71 81 68 75 79 83 89 67 57
22 27 36 33 27 30 45 38 40 37 40 39 33 44 29 30 31 26 28 31 24 26 28 24 18 19 21 21 20 25 31 38 47 53 54 54 57 52 36 50 58 67 73 75 85 90 91 69 72
32 28 24 29 27 31 35 35 35 36 18 15 27 23 24 36 27 26 21 24 33 36 29 30 28 21 18 23 22 26 27 32 34 39 43 53 57 59 55 34 45 61 68 70 74 70 82 83 89
36 29 18 15 23 28 28 17 16 22 21 27 33 30 30 28 33 27 38 26 19 25 26 28 23 24 24 28 33 28 36 37 37 37 36 43 48 49 49 58 48 52 68 69 69 60 70 87 98
35 30 33 19 30 29 35 28 26 31 13 28 27 19 14 14 14 23 18 20 30 33 32 34 36 36 35 35 31 33 37 40 43 41 39 47 57 53 63 65 63 51 60 69 72 73 68 84 86
34 31 27 10 12 30 35 33 16 27 36 22 20 24 24 22 21 22 24 27 35 36 31 34 40 42 39 32 33 36 36 36 40 45 52 53 53 53 61 66 67 62 59 70 61 68 67 84 79
28 29 35 28 17 21 30 21 7 24 6 18 21 24 30 22 23 32 34 35 30 29 30 29 27 31 35 35 34 39 44 46 41 49 54 57 56 58 63 63 65 69 61 65 68 65 70 78 78
35 34 22 25 19 21 24 32 20 7 6 24 20 16 17 31 21 21 25 31 34 35 32 32 33 35 37 41 42 44 41 46 52 55 53 56 64 64 67 67 65 65 72 63 72 71 68 75 79
Wind_Direction_500mb
325 334 312 295 240 230 248 239 258 293 350 16 13 359 349 27 38 56 97 105 179 159 149 151 153 153 152 152 151 150 149 147 146 144 138 132 129 126 126 123 119 114 106 101 94 85 74 74 79
322 340 297 268 243 249 235 245 254 54 78 49 17 325 310 69 45 66 69 103 184 163 154 155 157 157 157 156 156 156 156 154 151 152 147 142 138 134 134 129 123 118 114 113 107 96 82 63 63
308 313 287 233 247 245 252 20 1 70 84 85 17 9 326 20 41 36 36 82 199 176 162 159 161 161 163 162 163 163 164 161 160 160 157 152 149 145 143 140 134 127 130 130 122 107 102 82 48
305 268 244 256 230 249 255 299 305 360 26 104 265 318 105 61 34 358 337 225 197 201 173 165 165 166 167 168 168 170 172 170 169 169 166 163 160 156 154 154 149 146 155 173 147 153 119 53 30
255 266 254 247 240 239 274 309 318 307 304 106 159 256 134 87 28 358 331 241 204 193 183 171 170 171 173 173 174 175 175 176 177 177 175 174 170 167 171 173 180 211 238 262 289 284 286 310 319
257 241 253 251 242 256 236 282 270 250 271 259 357 255 73 59 22 357 332 253 200 196 196 179 176 175 178 179 180 181 181 182 184 185 186 185 182 183 190 189 200 235 267 284 295 298 298 299 300
246 254 244 248 263 232 261 198 235 259 273 22 348 124 75 33 14 347 357 209 185 188 197 195 184 180 182 186 187 187 189 189 191 192 193 196 195 201 207 207 216 231 252 268 280 290 296 297 297
232 260 267 267 255 256 203 247 289 208 243 261 309 264 3 19 357 337 4 233 186 180 197 208 197 184 186 191 193 195 195 196 197 200 202 203 209 210 218 224 232 245 257 265 270 278 286 290 291
231 234 243 251 264 274 272 180 222 233 230 232 255 297 322 11 342 341 352 182 193 183 197 216 204 193 191 196 198 198 202 204 205 207 209 211 217 224 233 239 246 252 259 265 272 276 279 288 287
234 239 240 240 247 259 275 271 215 205 219 254 209 247 332 14 345 336 338 106 222 179 186 205 206 202 195 200 205 203 204 208 211 214 216 219 224 235 244 250 250 253 258 262 270 273 280 285 289
235 244 249 253 246 254 253 269 172 203 214 254 224 226 236 337 332 336 337 18 244 265 191 202 215 211 198 185 223 211 213 213 215 221 225 224 232 233 235 255 266 273 275 265 267 270 282 294 300
245 242 248 253 265 272 262 263 171 222 255 218 258 225 214 174 322 345 345 1 7 303 196 199 196 202 204 183 229 243 230 220 221 224 230 232 231 232 221 247 263 275 296 277 286 288 299 321 319
244 249 252 252 249 261 272 268 267 193 232 211 238 255 232 217 241 325 344 360 3 293 107 184 180 186 196 197 189 214 238 235 234 236 234 234 235 231 225 216 237 259 280 297 291 303 271 282 291
266 260 258 257 255 254 257 265 266 244 196 214 212 239 248 223 213 239 295 14 292 312 205 223 188 236 233 213 207 193 189 209 228 234 248 248 241 233 231 234 231 215 233 255 274 281 274 260 262
269 272 272 270 254 268 263 257 258 259 226 222 217 206 240 251 228 209 235 239 252 289 282 222 213 223 246 239 219 215 203 196 202 216 228 246 250 242 233 239 247 243 235 232 225 239 259 261 272
259 270 257 253 255 251 258 252 249 257 263 259 253 223 235 238 244 222 222 226 220 224 264 247 234 211 220 237 231 221 220 216 211 214 219 235 250 254 244 244 249 252 248 237 240 241 250 269 267
254 255 254 254 248 251 230 247 250 252 260 256 243 249 213 255 253 242 205 218 217 224 209 224 207 220 211 206 221 226 224 228 230 241 243 244 248 259 264 258 250 249 245 239 246 236 257 272 267
254 241 236 246 254 247 233 238 236 237 245 255 256 231 224 236 252 217 210 208 195 211 224 224 200 208 219 227 240 234 231 236 226 241 257 250 245 258 265 264 269 245 240 240 242 247 247 257 272
260 276 286 290 297 263 247 263 276 277 266 244 249 219 215 234 255 202 196 209 211 222 224 223 233 232 217 229 240 238 236 272 278 273 267 255 239 254 276 281 268 256 240 241 245 248 250 264 263
302 292 284 280 277 283 279 245 252 259 266 259 225 226 235 226 214 204 190 205 203 209 223 229 229 242 252 254 238 243 251 251 262 247 255 253 267 261 262 278 282 271 251 243 246 233 242 263 260
263 265 272 278 277 275 253 265 266 261 264 263 246 211 219 215 200 204 194 204 227 229 231 229 221 231 238 242 240 222 226 245 251 249 252 253 258 259 260 281 280 268 266 253 240 230 230 240 266
270 272 278 269 268 269 278 270 261 253 231 231 237 238 219 233 219 205 203 188 212 220 249 239 244 236 223 237 239 223 218 225 229 238 247 254 258 265 269 267 273 279 268 255 254 234 231 249 264
268 291 284 294 290 280 263 267 265 268 266 248 211 216 225 218 240 179 173 190 198 216 217 226 250 247 252 251 257 258 253 243 243 243 244 231 226 237 253 255 254 260 273 254 250 240 238 254 243
294 296 284 278 265 262 262 258 266 261 263 266 177 197 192 210 169 181 191 194 204 224 226 226 240 239 249 263 265 263 266 263 261 257 262 251 240 238 246 263 262 271 276 265 250 247 240 245 250
256 245 262 253 241 248 259 264 246 263 225 203 143 162 183 186 176 184 205 211 233 220 219 226 233 247 262 274 275 267 264 261 265 274 271 271 257 254 244 246 274 269 270 269 262 255 241 240 246
252 238 261 288 284 286 323 283 273 346 197 156 152 171 179 191 206 217 205 204 247 258 255 235 236 253 254 261 256 267 271 279 277 272 272 278 270 266 261 247 256 261 254 264 265 257 237 242 247
261 251 242 293 294 276 268 244 272 287 222 151 152 166 199 221 220 226 209 238 246 250 247 255 260 262 258 264 268 268 278 278 278 275 267 260 265 271 271 259 247 251 256 260 261 258 247 241 246
246 261 275 234 278 277 281 280 281 321 216 179 191 202 188 201 220 247 263 260 259 255 257 254 261 264 263 257 263 274 273 275 277 277 278 277 275 270 267 261 252 246 253 259 255 256 247 241 242
246 243 259 283 225 239 263 271 254 332 267 232 190 183 199 204 236 248 249 256 258 258 259 264 262 266 267 268 265 267 270 269 275 277 275 275 274 269 268 266 268 253 246 253 251 256 244 238 239
231 266 265 236 241 255 295 281 186 128 302 294 284 196 220 233 243 265 274 266 268 264 259 263 263 263 260 265 267 270 270 274 282 271 273 270 271 268 269 269 258 264 246 248 248 250 239 234 233
Wind_Speed_850mb
17 20 17 17 12 14 27 36 44 13 20 13 25 23 17 45 31 11 26 16 27 42 54 55 58 62 61 57 52 49 43 38 33 29 28 26 24 23 21 19 18 18 17 16 14 14 14 14 14
16 14 15 17 14 23 24 36 42 7 25 28 20 17 20 11 32 39 29 19 22 39 55 59 60 63 61 58 53 48 43 37 32 29 27 25 22 20 17 16 14 14 13 12 11 11 10 9 10
16 14 19 10 20 28 32 19 24 8 22 10 6 8 20 18 32 12 25 12 22 28 55 61 62 64 62 59 54 49 43 37 32 29 27 24 21 18 15 12 11 10 8 8 7 6 6 6 7
11 20 19 19 33 41 48 27 15 14 6 10 10 7 9 22 19 19 17 5 26 23 55 64 65 65 63 59 57 51 44 38 33 30 27 24 20 17 12 10 7 6 4 4 3 2 1 2 3
21 19 21 28 33 36 45 51 18 11 16 3 12 21 16 17 22 25 14 12 27 33 49 65 68 66 62 59 56 52 47 40 35 31 28 24 20 16 12 9 5 3 2 3 3 4 3 4 6
32 33 24 28 32 37 25 57 39 15 20 21 3 18 9 26 29 27 19 10 31 43 41 64 69 68 61 56 53 50 46 42 37 34 30 26 21 18 15 11 7 6 5 8 9 11 11 11 12
28 24 34 38 38 26 29 43 30 46 43 25 40 5 24 34 29 25 21 4 30 44 43 53 69 69 64 58 53 49 46 42 38 35 32 29 24 20 17 14 12 10 10 12 13 14 16 18 19
39 23 41 39 34 44 30 33 25 46 42 50 27 7 20 33 32 27 15 6 31 44 44 45 66 70 67 61 57 51 47 43 40 37 35 31 27 24 21 18 15 14 14 16 16 17 19 23 26
49 27 29 42 45 36 44 23 41 19 39 48 38 28 25 18 31 31 17 7 27 44 45 40 61 70 68 63 60 55 48 44 42 40 38 33 30 26 25 21 20 19 19 21 20 22 23 26 30
40 33 48 41 37 39 52 47 54 27 33 43 62 39 20 26 28 35 33 12 14 41 43 33 40 57 62 52 60 57 52 49 46 43 40 37 33 29 25 22 24 23 25 25 23 27 27 30 32
52 43 45 52 59 65 51 55 21 26 33 51 55 52 21 6 25 37 37 17 9 12 38 39 33 43 46 37 44 49 54 52 49 46 44 39 37 31 22 24 27 22 25 29 27 28 27 24 26
48 60 61 58 61 66 48 63 25 33 34 42 23 42 12 3 12 26 41 21 12 16 27 32 35 41 35 36 42 35 46 52 53 52 48 44 40 35 27 24 27 24 20 15 20 18 19 21 22
46 49 56 61 63 61 63 59 30 49 47 37 42 42 34 19 12 20 27 16 14 11 5 21 32 38 39 54 40 37 28 35 40 44 45 48 45 36 36 35 30 33 31 24 22 17 20 28 27
49 50 54 54 57 53 53 58 47 60 54 32 28 36 48 40 35 14 24 10 16 20 14 18 12 30 46 58 49 44 38 34 33 34 40 39 40 42 35 42 41 37 38 31 26 29 26 32 33
44 46 37 46 41 45 63 44 52 61 42 41 51 50 53 55 54 44 27 16 22 22 15 21 33 27 40 44 67 47 52 47 38 41 40 45 44 37 43 47 40 36 39 39 37 38 39 44 37
27 34 38 42 40 49 51 46 49 62 55 51 55 48 54 62 45 68 56 36 33 25 25 19 29 27 29 25 37 71 58 59 52 46 52 48 52 50 47 50 51 44 43 39 41 37 36 39 31
30 32 40 45 46 40 45 54 45 62 58 57 58 63 38 44 40 37 47 35 30 40 24 24 23 34 20 15 31 32 38 53 58 59 50 49 56 56 53 53 59 54 46 46 49 37 32 29 30
32 41 41 44 40 44 52 53 46 45 50 57 65 43 37 34 45 42 47 42 33 34 34 26 18 17 39 42 42 21 14 24 46 41 43 46 53 57 52 52 57 53 56 53 55 41 34 31 25
40 42 45 39 36 31 25 29 31 36 58 51 35 25 27 37 44 44 40 39 34 36 32 30 32 22 22 27 36 53 27 28 33 35 34 38 54 52 48 56 58 59 58 59 52 43 38 28 25
27 34 39 37 44 35 31 29 31 39 46 49 45 42 43 42 41 32 26 32 30 29 35 35 30 48 29 30 23 30 64 61 56 38 50 42 50 45 56 49 60 54 61 66 53 52 48 38 30
33 36 38 43 39 37 33 38 37 41 51 58 50 55 53 60 56 50 39 29 16 27 32 29 30 33 31 31 24 21 26 57 96 78 66 47 52 51 59 67 63 57 55 70 61 68 63 42 38
38 33 36 31 33 27 31 31 39 41 49 52 59 49 45 50 56 65 49 34 26 20 19 27 36 32 23 25 23 27 34 40 43 54 55 55 61 70 73 65 72 56 65 77 73 78 76 57 53
34 31 34 31 33 27 39 28 35 39 39 32 27 40 39 45 50 54 34 24 22 19 18 18 26 23 27 32 37 34 40 32 41 46 49 49 50 52 51 53 71 81 68 75 79 83 89 67 57
22 27 36 33 27 30 45 38 40 37 40 39 33 44 29 30 31 26 28 31 24 26 28 24 18 19 21 21 20 25 31 38 47 53 54 54 57 52 36 50 58 67 73 75 85 90 91 69 72
32 28 24 29 27 31 35 35 35 36 18 15 27 23 24 36 27 26 21 24 33 36 29 30 28 21 18 23 22 26 27 32 34 39 43 53 57 59 55 34 45 61 68 70 74 70 82 83 89
36 29 18 15 23 28 28 17 16 22 21 27 33 30 30 28 33 27 38 26 19 25 26 28 23 24 24 28 33 28 36 37 37 37 36 43 48 49 49 58 48 52 68 69 69 60 70 87 98
35 30 33 19 30 29 35 28 26 31 13 28 27 19 14 14 14 23 18 20 30 33 32 34 36 36 35 35 31 33 37 40 43 41 39 47 57 53 63 65 63 51 60 69 72 73 68 84 86
34 31 27 10 12 30 35 33 16 27 36 22 20 24 24 22 21 22 24 27 35 36 31 34 40 42 39 32 33 36 36 36 40 45 52 53 53 53 61 66 67 62 59 70 61 68 67 84 79
28 29 35 28 17 21 30 21 7 24 6 18 21 24 30 22 23 32 34 35 30 29 30 29 27 31 35 35 34 39 44 46 41 49 54 57 56 58 63 63 65 69 61 65 68 65 70 78 78
35 34 22 25 19 21 24 32 20 7 6 24 20 16 17 31 21 21 25 31 34 35 32 32 33 35 37 41 42 44 41 46 52 55 53 56 64 64 67 67 65 65 72 63 72 71 68 75 79
Wind_Direction_850mb
325 334 312 295 240 230 248 239 258 293 350 16 13 359 349 27 38 56 97 105 179 159 149 151 153 153 152 152 151 150 149 147 146 144 138 132 129 126 126 123 119 114 106 101 94 85 74 74 79
322 340 297 268 243 249 235 245 254 54 78 49 17 325 310 69 45 66 69 103 184 163 154 155 157 157 157 156 156 156 156 154 151 152 147 142 138 134 134 129 123 118 114 113 107 96 82 63 63
308 313 287 233 247 245 252 20 1 70 84 85 17 9 326 20 41 36 36 82 199 176 162 159 161 161 163 162 163 163 164 161 160 160 157 152 149 145 143 140 134 127 130 130 122 107 102 82 48
305 268 244 256 230 249 255 299 305 360 26 104 265 318 105 61 34 358 337 225 197 201 173 165 165 166 167 168 168 170 172 170 169 169 166 163 160 156 154 154 149 146 155 173 147 153 119 53 30
255 266 254 247 240 239 274 309 318 307 304 106 159 256 134 87 28 358 331 241 204 193 183 171 170 171 173 173 174 175 175 176 177 177 175 174 170 167 171 173 180 211 238 262 289 284 286 310 319
257 241 253 251 242 256 236 282 270 250 271 259 357 255 73 59 22 357 332 253 200 196 196 179 176 175 178 179 180 181 181 182 184 185 186 185 182 183 190 189 200 235 267 284 295 298 298 299 300
246 254 244 248 263 232 261 198 235 259 273 22 348 124 75 33 14 347 357 209 185 188 197 195 184 180 182 186 187 187 189 189 191 192 193 196 195 201 207 207 216 231 252 268 280 290 296 297 297
232 260 267 267 255 256 203 247 289 208 243 261 309 264 3 19 357 337 4 233 186 180 197 208 197 184 186 191 193 195 195 196 197 200 202 203 209 210 218 224 232 245 257 265 270 278 286 290 291
231 234 243 251 264 274 272 180 222 233 230 232 255 297 322 11 342 341 352 182 193 183 197 216 204 193 191 196 198 198 202 204 205 207 209 211 217 224 233 239 246 252 259 265 272 276 279 288 287
234 239 240 240 247 259 275 271 215 205 219 254 209 247 332 14 345 336 338 106 222 179 186 205 206 202 195 200 205 203 204 208 211 214 216 219 224 235 244 250 250 253 258 262 270 273 280 285 289
235 244 249 253 246 254 253 269 172 203 214 254 224 226 236 337 332 336 337 18 244 265 191 202 215 211 198 185 223 211 213 213 215 221 225 224 232 233 235 255 266 273 275 265 267 270 282 294 300
245 242 248 253 265 272 262 263 171 222 255 218 258 225 214 174 322 345 345 1 7 303 196 199 196 202 204 183 229 243 230 220 221 224 230 232 231 232 221 247 263 275 296 277 286 288 299 321 319
244 249 252 252 249 261 272 268 267 193 232 211 238 255 232 217 241 325 344 360 3 293 107 184 180 186 196 197 189 214 238 235 234 236 234 234 235 231 225 216 237 259 280 297 291 303 271 282 291
266 260 258 257 255 254 257 265 266 244 196 214 212 239 248 223 213 239 295 14 292 312 205 223 188 236 233 213 207 193 189 209 228 234 248 248 241 233 231 234 231 215 233 255 274 281 274 260 262
269 272 272 270 254 268 263 257 258 259 226 222 217 206 240 251 228 209 235 239 252 289 282 222 213 223 246 239 219 215 203 196 202 216 228 246 250 242 233 239 247 243 235 232 225 239 259 261 272
259 270 257 253 255 251 258 252 249 257 263 259 253 223 235 238 244 222 222 226 220 224 264 247 234 211 220 237 231 221 220 216 211 214 219 235 250 254 244 244 249 252 248 237 240 241 250 269 267
254 255 254 254 248 251 230 247 250 252 260 256 243 249 213 255 253 242 205 218 217 224 209 224 207 220 211 206 221 226 224 228 230 241 243 244 248 259 264 258 250 249 245 239 246 236 257 272 267
254 241 236 246 254 247 233 238 236 237 245 255 256 231 224 236 252 217 210 208 195 211 224 224 200 208 219 227 240 234 231 236 226 241 257 250 245 258 265 264 269 245 240 240 242 247 247 257 272
260 276 286 290 297 263 247 263 276 277 266 244 249 219 215 234 255 202 196 209 211 222 224 223 233 232 217 229 240 238 236 272 278 273 267 255 239 254 276 281 268 256 240 241 245 248 250 264 263
302 292 284 280 277 283 279 245 252 259 266 259 225 226 235 226 214 204 190 205 203 209 223 229 229 242 252 254 238 243 251 251 262 247 255 253 267 261 262 278 282 271 251 243 246 233 242 263 260
263 265 272 278 277 275 253 265 266 261 264 263 246 211 219 215 200 204 194 204 227 229 231 229 221 231 238 242 240 222 226 245 251 249 252 253 258 259 260 281 280 268 266 253 240 230 230 240 266
270 272 278 269 268 269 278 270 261 253 231 231 237 238 219 233 219 205 203 188 212 220 249 239 244 236 223 237 239 223 218 225 229 238 247 254 258 265 269 267 273 279 268 255 254 234 231 249 264
268 291 284 294 290 280 263 267 265 268 266 248 211 216 225 218 240 179 173 190 198 216 217 226 250 247 252 251 257 258 253 243 243 243 244 231 226 237 253 255 254 260 273 254 250 240 238 254 243
294 296 284 278 265 262 262 258 266 261 263 266 177 197 192 210 169 181 191 194 204 224 226 226 240 239 249 263 265 263 266 263 261 257 262 251 240 238 246 263 262 271 276 265 250 247 240 245 250
256 245 262 253 241 248 259 264 246 263 225 203 143 162 183 186 176 184 205 211 233 220 219 226 233 247 262 274 275 267 264 261 265 274 271 271 257 254 244 246 274 269 270 269 262 255 241 240 246
252 238 261 288 284 286 323 283 273 346 197 156 152 171 179 191 206 217 205 204 247 258 255 235 236 253 254 261 256 267 271 279 277 272 272 278 270 266 261 247 256 261 254 264 265 257 237 242 247
261 251 242 293 294 276 268 244 272 287 222 151 152 166 199 221 220 226 209 238 246 250 247 255 260 262 258 264 268 268 278 278 278 275 267 260 265 271 271 259 247 251 256 260 261 258 247 241 246
246 261 275 234 278 277 281 280 281 321 216 179 191 202 188 201 220 247 263 260 259 255 257 254 261 264 263 257 263 274 273 275 277 277 278 277 275 270 267 261 252 246 253 259 255 256 247 241 242
246 243 259 283 225 239 263 271 254 332 267 232 190 183 199 204 236 248 249 256 258 258 259 264 262 266 267 268 265 267 270 269 275 277 275 275 274 269 268 266 268 253 246 253 251 256 244 238 239
231 266 265 236 241 255 295 281 186 128 302 294 284 196 220 233 243 265 274 266 268 264 259 263 263 263 260 265 267 270 270 274 282 271 273 270 271 268 269 269 258 264 246 248 248 250 239 234 233